This is the latest recevied weather packets stored in our database for station/object W5LND-10. If no packets are shown the sender has not sent any weather packets the latest 10 day(s).
| Time | Temp. | Humidity | Pressure | Rain* | Wind** | Luminosity | Snow |
|---|---|---|---|---|---|---|---|
| 1777660281 | 11.11° C | 91% | 1015.8 hPa | 2.79 mm | - | 62 W/m² | - |
| 1777659981 | 11.11° C | 91% | 1016 hPa | 3.05 mm | - | 37 W/m² | - |
| 1777659681 | 11.11° C | 91% | 1016.1 hPa | 3.3 mm | - | 58 W/m² | - |
| 1777659381 | 11.11° C | 91% | 1016.2 hPa | 3.81 mm | - | 98 W/m² | - |
| 1777659081 | 11.11° C | 91% | 1016.2 hPa | 3.81 mm | - | 77 W/m² | - |
| 1777658781 | 11.11° C | 91% | 1016.4 hPa | 3.81 mm | - | 144 W/m² | - |
| 1777658481 | 11.11° C | 91% | 1016.6 hPa | 4.06 mm | - | 54 W/m² | - |
| 1777658181 | 11.11° C | 91% | 1016.5 hPa | 4.32 mm | - | 51 W/m² | - |
| 1777657881 | 11.11° C | 91% | 1016.7 hPa | 4.32 mm | - | 69 W/m² | - |
| 1777657581 | 11.11° C | 91% | 1016.7 hPa | 4.57 mm | - | 42 W/m² | - |
| 1777657281 | 11.11° C | 91% | 1016.7 hPa | 4.57 mm | - | 65 W/m² | - |
| 1777656981 | 11.11° C | 91% | 1016.7 hPa | 4.57 mm | - | 83 W/m² | - |
| 1777656681 | 11.11° C | 91% | 1016.7 hPa | 4.83 mm | - | 35 W/m² | - |
| 1777656381 | 11.11° C | 91% | 1016.8 hPa | 4.83 mm | - | 42 W/m² | - |
| 1777656081 | 11.11° C | 91% | 1016.7 hPa | 4.83 mm | - | 46 W/m² | - |
| 1777655781 | 11.11° C | 91% | 1016.7 hPa | 5.08 mm | - | 40 W/m² | - |
| 1777655481 | 11.67° C | 91% | 1016.7 hPa | 5.33 mm | - | 70 W/m² | - |
| 1777655181 | 11.67° C | 91% | 1016.7 hPa | 5.84 mm | - | 69 W/m² | - |
| 1777654881 | 11.67° C | 91% | 1016.7 hPa | 5.59 mm | - | 72 W/m² | - |
| 1777654581 | 11.67° C | 91% | 1016.7 hPa | 5.84 mm | - | 93 W/m² | - |
| 1777654281 | 11.67° C | 91% | 1016.7 hPa | 5.84 mm | - | 72 W/m² | - |
| 1777653982 | 11.67° C | 91% | 1016.6 hPa | 5.59 mm | - | 67 W/m² | - |
| 1777653681 | 11.67° C | 91% | 1016.5 hPa | 5.33 mm | - | 58 W/m² | - |
| 1777653381 | 11.67° C | 91% | 1016.4 hPa | 5.33 mm | - | 79 W/m² | - |
| 1777653082 | 11.67° C | 91% | 1016.4 hPa | 5.08 mm | - | 74 W/m² | - |
* Rain latest hour (hover to see other rain measurements)
** Current wind speed in m/s (hover to see current wind gust speed)